Погода в Енисейске

Погода в Енисейске : погода сейчас, прогноз погоды и архив. Всё, что Вы хотите узнать о погоде в Енисейске!

Хотите узнать прогноз погоды в Енисейске? Тогда Вам сюда: Погода в Енисейске

Поиск расширенной информации на нашем сайте:

Другие новости

Новости СМИ2

Главная страница сайта

Новости сайта

03.07.2017

Напоминаем, что на нашем специализированном сайте Метеоцентр.Азия вы можете получить высокодетализированные автоматические прогнозы погоды по пунктам России, СНГ и мира в авиационном формате (включающие направление и скорость ветра, видимость, явления погоды, количество и форму облачности, нижнюю и верхнюю границу облачности).


Погода в Енисейске - сегодня

Время (UTC), дата Ветер
(°,м/с) 
Видим.   Явления Облачность Т
(°С)
Тd
(°С)
f(%) Тe
(°С)
Pmin
(гПа)
dP
(гПа)
Po
(мм)
O2
(г/м3)
Тmin Tmax R s Состояние
почвы
18 20.08.17 220 (ЮЗ) 30000 м    4/0 верхняя 
[Ci fib]
+8.7 +7.9 95 +10  1015.1  0.8  754  293           
21 20.08.17 240 (ЮЗ) 30000 м    6/0 средняя, верхняя 
[Ac trans|Ci fib]
+7.4 +7 97 +8  1015.3  0.2  754  295           
00 21.08.17 тихо ()   20000 м    9/0 средняя, верхняя 
[Ac trans|Ci sp]
+8.6 +7.3 92 +9  1016.2  0.9  755  294  +6        сухая 
03 21.08.17 310 (СЗ) 20000 м    9/0 средняя 
[Ac trans]
+12.2 +9.4 83 +13  1016.7  0.6  755  290           
06 21.08.17 310 (СЗ) 20000 м    9/5 600 м кучево-дожд., средняя, верхняя 
[Cb cap|Ac trans|Ci sp]
+16.4 +11.2 71 +21  1016.3  -0.2  755  285           
09 21.08.17 280 (З) 20000 м  {ливн. осадки}  9/8 600 м кучево-дожд., средняя, верхняя 
[Cb cap|Ac trans|Ci sp]
+15.6 +11.3 76 +19  1016.5  0.2  755  286           
12 21.08.17 290 (З) 20000 м  {ливн. осадки}  9/5 1000 м средняя, верхняя 
[Sc diur, vesp|Ac trans|Ci fib]
+16 +12.2 78 +21  1016.7  0.2  755  285    +19.1     
15 21.08.17 300 (СЗ) 30000 м    4/4 1000 м 
[Sc]
+11.8 +10.4 91 +15  1018  1.1  756  290           
18 21.08.17 тихо ()   30000 м    ясно 
+8.5 +7.7 95 +9  1019  0.9  757  294           
21 21.08.17 тихо ()   30000 м    ясно 
+3.8 +3.8 100 +4  1019.8  0.6  757  300           
00 22.08.17 тихо ()   4000 м  дымка  9/3 300 м верхняя 
[Sc|Ci fib]
+2.8 +2.8 100 +3  1019.9  0.1  757  302  +2        влажная 
03 22.08.17 220 (ЮЗ) 20000 м    9/0 верхняя 
[Ci fib]
+13 +7 67 +14  1019.1  -0.5  757  290           
06 22.08.17 200 (Ю) 20000 м    9/3 1000 м средняя, верхняя 
[Cu hum|Ac trans|Ci fib]
+18 +5.8 45 +18  1016.3  -2.5  755  284           
09 22.08.17 210 (ЮЗ) 10 км  слаб. ливневой дождь  9/8 600 м кучево-дожд., средняя, верхняя 
[Cb cap|Ac trans|Ci fib]
+17.8 +7.6 51 +18  1013.8  -2.6  753  284           
12 22.08.17 210 (ЮЗ) 10 км  слаб. ливневой дождь  10/8 600 м кучево-дожд., средняя 
[Cb cap|Ac und]
+12.9 +11.2 89 +16  1011.7  -2.2  751  287    +19.1     
15 22.08.17 240 (ЮЗ) 15000 м  слаб. ливневой дождь  10/8 600 м кучево-дожд., средняя 
[Cb cap|Ac und]
+12.7 +12.3 97 +17  1009.7  -2  750  286           
18 22.08.17 310 (СЗ) 15000 м  слаб. ливневой дождь  10/8 600 м кучево-дожд., средняя 
[Cb cap|Ac und]
+13.2 +13 99 +19  1009.7  750  286           
21 22.08.17 320 (СЗ) 30000 м  {ливн. осадки}  10/8 600 м кучево-дожд., средняя 
[Cb cap|Ac und]
+12.4 +11.6 95 +15  1010.8  1.1  751  287           
00 23.08.17 320 (СЗ) 20000 м  {ливн. осадки}  9/8 600 м кучево-дожд., верхняя 
[Cb cap|Ci sp]
+11.6 +10.4 92 +13  1012.6  1.8  752  289  +11.6      влажная 
03 23.08.17 330 (СЗ) 4{10}  20000 м    9/8 600 м кучево-дожд., верхняя 
[Cb cap|Ci fib]
+12.4 +7.9 74 +12  1015.1  2.5  754  289           
06 23.08.17 310 (СЗ) 20000 м    9/8 600 м кучево-дожд., верхняя 
[Cb cap|Ci fib]
+13.3 +5.9 61 +13  1016.2  1.1  755  289           
09 23.08.17 320 (СЗ) 5{11}  20000 м    9/8 600 м кучево-дожд., верхняя 
[Cb cap|Ci fib]
+12.8 +5.3 60 +12  1017.6  1.3  756  290           
12 23.08.17 330 (СЗ) 20000 м    9/3 600 м кучево-дожд., средняя, верхняя 
[Cb cap|Ac trans|Ci fib]
+12.6 +5.3 61 +13  1018.9  1.3  757  291    +14.5       
15 23.08.17 230 (ЮЗ) 30000 м    9/4 600 м кучево-дожд., средняя, верхняя 
[Cb cap|Ac trans|Ci fib]
+9.4 +7.3 87 +10  1019.7  0.7  757  294           
18 23.08.17 тихо ()   30000 м    8/8 600 м кучево-дожд. 
[Cb cap]
+9.8 +8.6 92 +10  1019.7  0.1  757  293           
Время (UTC), дата Ветер
(°,м/с) 
Видим.   Явления Облачность Т
(°С)
Тd
(°С)
f(%) Тe
(°С)
Pmin
(гПа)
dP
(гПа)
Po
(мм)
O2
(г/м3)
Тmin Tmax R s Состояние
почвы

Для получения пояснительной информации подведите курсор к названию столбца.

ПОГОДА в Енисейске - архив

Всё, что Вы хотите узнать о погоде в Енисейске - удобно и подробно!

Выберите нужную дату (начиная с 1 января 2015* года) и нажмите кнопку "Найти".
Будут отображены архивные сводки погоды по пункту Енисейск, начиная с указанной даты.


Отображать данные в формате CSV (для использования в таблицах Excel)


Внимание! Наш архив погоды предназначен исключительно для личного некоммерческого использования в познавательных целях. Если Вам необходимы официальные справки о состоянии погоды (для производственных, юридических, коммерческих и т.п. целей), обращайтесь в органы Росгидромета.

*Примечание: данная дата относится к архиву по метеостанциям СССР (Россия, СНГ, Балтия).
Архив по метеостанциям Зарубежной Европы и Азии (кроме Китая) хранится 10 дней, по другим регионам земного шара (Китай, Африка, Америка, Австралия, Океания) - 1 день.

Енисейск - район местоположения метеостанции


Название, широта, долгота, высота метеостанции:
Енисейск 58.4°ш. 92.2°д. 79 м над ур. моря [Российская Федерация]

Дополнительная информация

В oтличие oт бoльшинства пoгoдных сайтoв мы публикуем пoдрoбную метеoинфoрмацию в детальнoм прoфессиoнальнoм фoрмате.

Характеристики температуры и влажнoсти вoздуха измеряются на высoте 2 м в тени вдали oт зданий и деревьев.
Скoрoсть ветра измеряется на высoте 10 м (на урoвне рoста челoвека скoрoсть ветра ниже в 1.5-2 раза). Если метеoстанция нахoдится в гoрoде или в лесу, тo скoрoсть ветра занижена на 2-4 м/с пo сравнению с oткрытым местoм. Скoрoсть ветра над акватoриями крупных рек и oзёр, а также на вершинах хoлмoв на 2-5 м/с выше, чем в oбычных услoвиях.
Атмoсфернoе давление в разных тoчках местнoсти мoжет значительнo oтличаться oт давления на метеoстанции, в зависимoсти oт услoвий рельефа (при пoдъёме на 10 м давление пoнижается примернo на 1 мм рт.ст.).